Overview Statistics Trail Chart Weather Telemetry Raw packets
 

This is the latest recevied weather packets stored in our database for station/object IZ8FMH-11. If no packets are shown the sender has not sent any weather packets the latest 10 day(s).

<< 15 16 17 18 19 >>
Time Temp. Humidity Pressure Rain* Wind** Luminosity Snow
1787834096 32.78° C 44% 1014.5 hPa - - - -
1787832298 32.22° C 46% 1014.4 hPa - - - -
1787830497 31.67° C 47% 1014.6 hPa - - - -
1787828697 31.67° C 50% 1014.6 hPa - - - -
1787826897 31.11° C 56% 1014.5 hPa - - - -
1787825097 31.11° C 39% 1014.3 hPa - - - -
1787823297 30.56° C 43% 1014.4 hPa - - - -
1787821497 30° C 48% 1014.8 hPa - - - -
1787819697 29.44° C 54% 1015 hPa - - - -
1787817897 28.89° C 59% 1015.1 hPa - - - -
1787816097 28.33° C 58% 1015 hPa - - - -
1787814301 27.78° C 59% 1014.5 hPa - - - -
1787812497 27.78° C 59% 1015.3 hPa - - - -
1787810697 27.78° C 59% 1015.7 hPa - - - -
1787808896 27.22° C 55% 1015.6 hPa - - - -
1787807096 27.22° C 51% 1015.7 hPa - - - -
1787805296 27.22° C 52% 1016.1 hPa - - - -
1787803496 27.22° C 50% 1015.6 hPa - - - -
1787801696 27.22° C 50% 1014.7 hPa - - - -
1787799896 27.78° C 50% 1014.5 hPa - - - -
1787798096 27.78° C 54% 1014.3 hPa - - - -
1787796296 27.78° C 58% 1014.3 hPa - - - -
1787794496 27.78° C 53% 1013.4 hPa - - - -
1787792697 28.33° C 56% 1013.4 hPa - - - -
1787790896 28.33° C 53% 1013.7 hPa - - - -

* Rain since midnight (hover to see other rain measurements)
** Current wind speed in m/s (hover to see current wind gust speed)